{"data":{"norad_id":59350,"epoch":"2026-05-24T20:10:46.680384Z","epoch_age_seconds":89035,"freshness":"FRESH","line1":"1 59350U 24060C   26144.84081806  .00000068  00000+0  12005-4 0  9991","line2":"2 59350  43.0026 189.4149 0001168 276.6567  83.4151 15.27576779121710","mean_motion":15.27576779,"eccentricity":0.0001168,"inclination_deg":43.0026,"raan_deg":189.4149,"arg_perigee_deg":276.6567,"mean_anomaly_deg":83.4151,"bstar":1.2005e-5,"rev_number":12171,"period_min":94.266947481531,"perigee_km":482.25735322681,"apogee_km":483.86012855189,"semimajor_km":6861.1957408893,"source":"CELESTRAK","updated_at":"2026-05-25T13:38:18.908526Z"}}